Home   Weather   Bălți   Past weeks

Flag for Moldova Past Weather in Bălți, Moldova — Yesterday and Last 2 Weeks

Now
45 °F

Clear.


Feels Like: 38 °F
Forecast: 45 / 71 °F
Wind: 13 mph from Southeast

Location: Iasi Airport

Current Time: Apr 26, 2017 at 5:12:33 am

Latest Report: Apr 26, 2017 at 4:00 am


Visibility: 10 mi

Pressure: 30.01 "Hg

Humidity: 66%

Dew Point: 34 °F

Location of BălțiLocation

Past Weather in Bălți — Graph

°F

Bălți Temperature Yesterday

Maximum temperature yesterday: 64 °F (at 4:30 pm)
Minimum temperature yesterday: 36 °F (at 4:00 am)
Average temperature yesterday: 50 °F

High & Low Weather Summary for the Past Weeks

 TemperatureHumidityPressure
High70 °F (Apr 11, 4:00 pm)93% (Apr 20, 8:30 am)30.15 "Hg (Apr 20, 8:30 am)
Low32 °F (Apr 20, 8:30 am)24% (Apr 18, 3:30 pm)29.68 "Hg (Apr 13, 6:00 pm)
Average47 °F58%29.96 "Hg
* Reported Apr 11 4:00 am — Apr 26 4:00 am, Bălți, Weather by CustomWeather, © 2017

Note: Actual official high and low records may vary slightly from our data, if they occured in-between our weather recording intervals... More about our weather records

Advertising

Bălți Weather History for the Previous 24 Hours

Scroll right to see more
 ConditionsComfort  
Time TempWeatherWind HumidityBarometerVisibility
4:00 am
Wed, Apr 26
45 °FClear.13 mph66%30.01 "Hg10 mi
3:30 am45 °FQuite cool.10 mph71%30.01 "HgN/A
3:00 am46 °FCool.13 mph66%30.01 "HgN/A
2:30 am48 °FCool.12 mph62%30.01 "HgN/A
2:00 am48 °FCool.12 mph66%30.04 "HgN/A
1:30 am52 °FCool.7 mph58%30.04 "HgN/A
12:30 am54 °FClear.13 mph54%30.01 "Hg10 mi
12:00 am55 °FRefreshingly cool.12 mph55%30.01 "HgN/A
11:30 pm
Tue, Apr 25
54 °FCool.9 mph54%30.01 "HgN/A
10:30 pm55 °FClear.8 mph51%30.01 "Hg10 mi
10:00 pm57 °FClear.10 mph48%30.01 "Hg10 mi
9:30 pm57 °FRefreshingly cool.9 mph48%30.01 "HgN/A
9:00 pm57 °FPassing clouds.7 mph48%30.01 "HgN/A
8:30 pm57 °FClear.8 mph48%30.01 "Hg10 mi
8:00 pm59 °FPassing clouds.10 mph42%30.01 "HgN/A
7:30 pm61 °FPassing clouds.10 mph39%30.01 "HgN/A
7:00 pm61 °FSunny.12 mph42%30.01 "Hg10 mi
6:30 pm61 °FSunny.14 mph39%30.01 "Hg10 mi
5:30 pm63 °FPassing clouds.12 mph37%30.01 "HgN/A
5:00 pm63 °FSunny.14 mph34%30.01 "Hg10 mi
4:30 pm64 °FPassing clouds.12 mph32%30.01 "HgN/A
4:00 pm63 °FPassing clouds.10 mph34%30.04 "HgN/A
3:30 pm63 °FPassing clouds.12 mph32%30.04 "HgN/A
2:30 pm61 °FSunny.12 mph34%30.07 "Hg10 mi
2:00 pm61 °FSunny.10 mph34%30.07 "Hg10 mi
1:30 pm59 °FSunny.15 mph36%30.07 "Hg10 mi
1:00 pm59 °FPassing clouds.14 mph36%30.09 "HgN/A
12:30 pm57 °FPassing clouds.13 mph36%30.09 "HgN/A
12:00 pm57 °FPassing clouds.14 mph36%30.09 "HgN/A
11:30 am55 °FPassing clouds.13 mph38%30.12 "HgN/A
11:00 am55 °FPassing clouds.10 mph38%30.12 "HgN/A
10:00 am52 °FPassing clouds.7 mph44%30.12 "HgN/A
9:30 am48 °FPassing clouds.7 mph62%30.12 "HgN/A
8:30 am43 °FSunny.7 mph71%30.12 "Hg10 mi
8:00 am39 °FSunny.7 mph81%30.12 "Hg10 mi
7:30 am37 °FSunny.6 mph81%30.12 "Hg10 mi
7:00 am36 °FSunny.8 mph81%30.12 "Hg10 mi
6:30 am36 °FSunny.8 mph81%30.12 "Hg10 mi
6:00 am36 °FClear.9 mph81%30.12 "Hg10 mi
5:30 am36 °FClear.8 mph81%30.12 "Hg10 mi
Weather by CustomWeather, © 2017

See weather overviewHow to use our weather pages